This is the latest recevied weather packets stored in our database for station/object W8AN. If no packets are shown the sender has not sent any weather packets the latest 10 day(s).
| Time | Temp. | Humidity | Pressure | Rain* | Wind** | Luminosity | Snow |
|---|---|---|---|---|---|---|---|
| 1778076207 | 10.56° C | 60% | 4266.4 hPa | 0 mm | - | 670 W/m² | - |
| 1778075904 | 10.56° C | 59% | 4266.3 hPa | 0 mm | - | 650 W/m² | - |
| 1778075601 | 10° C | 62% | 4266.3 hPa | 0 mm | - | 632 W/m² | - |
| 1778075297 | 10° C | 65% | 4266.5 hPa | 0 mm | - | 319 W/m² | - |
| 1778074994 | 10° C | 67% | 4266.5 hPa | 0 mm | - | 320 W/m² | - |
| 1778074691 | 10° C | 65% | 4266.4 hPa | 0 mm | - | 461 W/m² | - |
| 1778074388 | 10° C | 66% | 4266.4 hPa | 0 mm | - | 314 W/m² | - |
| 1778074084 | 9.44° C | 68% | 4266.1 hPa | 0 mm | - | 376 W/m² | - |
| 1778073782 | 9.44° C | 69% | 4266.2 hPa | 0 mm | - | 311 W/m² | - |
| 1778073480 | 9.44° C | 71% | 4265.8 hPa | 0 mm | - | 432 W/m² | - |
| 1778073175 | 9.44° C | 72% | 4265.8 hPa | 0 mm | - | 345 W/m² | - |
| 1778072872 | 9.44° C | 70% | 4265.9 hPa | 0 mm | - | 336 W/m² | - |
| 1778072569 | 8.89° C | 73% | 4265.9 hPa | 0 mm | - | 357 W/m² | - |
| 1778072267 | 8.89° C | 73% | 4265.7 hPa | 0 mm | - | 217 W/m² | - |
| 1778071965 | 8.89° C | 74% | 4265.7 hPa | 0 mm | - | 288 W/m² | - |
| 1778071663 | 8.89° C | 75% | 4265.5 hPa | 0 mm | - | 235 W/m² | - |
| 1778071360 | 8.89° C | 78% | 4265.9 hPa | 0 mm | - | 186 W/m² | - |
| 1778071058 | 8.33° C | 79% | 4265.7 hPa | 0 mm | - | 154 W/m² | - |
| 1778070756 | 8.33° C | 79% | 4265.8 hPa | 0 mm | - | 145 W/m² | - |
| 1778070453 | 8.33° C | 80% | 4265.7 hPa | 0 mm | - | 139 W/m² | - |
| 1778070150 | 7.78° C | 80% | 4265.5 hPa | 0 mm | - | 146 W/m² | - |
| 1778069848 | 7.78° C | 81% | 4265.4 hPa | 0 mm | - | 188 W/m² | - |
| 1778069544 | 7.22° C | 82% | 4265.5 hPa | 0 mm | - | 118 W/m² | - |
| 1778069242 | 7.22° C | 82% | 4265.3 hPa | 0 mm | - | 109 W/m² | - |
| 1778068940 | 7.22° C | 82% | 4265.1 hPa | 0 mm | - | 59 W/m² | - |
* Rain latest hour (hover to see other rain measurements)
** Current wind speed in m/s (hover to see current wind gust speed)